| time (UTC) | temp F | wind direction | speed MPH | gust MPH | rain 1hr in | rain 24hr in | rain mn in | humidity % | barometer mb |
| 20260507232619 | 86 | 215 | 1.0 | 8.0 | 0.00 | 0.02 | 0.01 | 60 | 1010.6 |
| 20260507232119 | 86 | 187 | 2.0 | 9.0 | 0.00 | 0.02 | 0.01 | 59 | 1010.5 |
| 20260507231618 | 86 | 229 | 2.0 | 9.0 | 0.00 | 0.02 | 0.01 | 59 | 1010.5 |
| 20260507231119 | 86 | 217 | 1.0 | 5.0 | 0.00 | 0.02 | 0.01 | 59 | 1010.5 |
| 20260507230618 | 86 | 0 | 1.0 | 5.0 | 0.00 | 0.02 | 0.01 | 59 | 1010.4 |
| 20260507225619 | 86 | 0 | 1.0 | 5.0 | 0.00 | 0.02 | 0.01 | 58 | 1010.2 |
| 20260507225118 | 86 | 227 | 2.0 | 5.0 | 0.00 | 0.02 | 0.01 | 57 | 1010.1 |
| 20260507224619 | 86 | 213 | 2.0 | 8.0 | 0.00 | 0.02 | 0.01 | 57 | 1010.1 |
| 20260507224116 | 86 | 218 | 2.0 | 9.0 | 0.00 | 0.02 | 0.01 | 57 | 1010.1 |
| 20260507223615 | 87 | 220 | 2.0 | 9.0 | 0.00 | 0.02 | 0.01 | 57 | 1010.2 |
| 20260507223115 | 87 | 212 | 2.0 | 9.0 | 0.00 | 0.02 | 0.01 | 56 | 1010.0 |
| 20260507222612 | 88 | 336 | 2.0 | 9.0 | 0.00 | 0.02 | 0.01 | 56 | 1010.0 |
| 20260507222113 | 88 | 146 | 2.0 | 5.0 | 0.00 | 0.02 | 0.01 | 55 | 1010.1 |
| 20260507221113 | 88 | 205 | 3.0 | 8.0 | 0.00 | 0.02 | 0.01 | 54 | 1010.1 |
| 20260507220613 | 87 | 275 | 3.0 | 8.0 | 0.00 | 0.02 | 0.01 | 55 | 1010.1 |
| 20260507220114 | 87 | 210 | 2.0 | 5.0 | 0.00 | 0.02 | 0.01 | 55 | 1009.9 |
| 20260507215614 | 88 | 0 | 2.0 | 5.0 | 0.00 | 0.02 | 0.01 | 53 | 1009.8 |
| 20260507215112 | 88 | 232 | 2.0 | 6.0 | 0.00 | 0.02 | 0.01 | 55 | 1009.7 |
| 20260507214112 | 88 | 225 | 3.0 | 8.0 | 0.00 | 0.02 | 0.01 | 54 | 1009.6 |
| 20260507213612 | 88 | 195 | 3.0 | 6.0 | 0.00 | 0.02 | 0.01 | 55 | 1009.5 |
| 20260507213111 | 88 | 190 | 3.0 | 6.0 | 0.00 | 0.02 | 0.01 | 55 | 1009.6 |
| 20260507212612 | 87 | 236 | 2.0 | 7.0 | 0.00 | 0.02 | 0.01 | 56 | 1009.8 |
| 20260507212112 | 87 | 201 | 3.0 | 7.0 | 0.00 | 0.02 | 0.01 | 56 | 1009.8 |
| 20260507211113 | 86 | 211 | 2.0 | 5.0 | 0.00 | 0.02 | 0.01 | 59 | 1009.6 |
| 20260507210112 | 86 | 214 | 2.0 | 7.0 | 0.00 | 0.02 | 0.01 | 61 | 1009.8 |
| 20260507205609 | 85 | 216 | 2.0 | 5.0 | 0.00 | 0.02 | 0.01 | 61 | 1010.2 |
| 20260507205110 | 84 | 164 | 2.0 | 7.0 | 0.00 | 0.02 | 0.01 | 62 | 1010.5 |
| 20260507204606 | 83 | 226 | 2.0 | 7.0 | 0.00 | 0.02 | 0.01 | 64 | 1010.7 |
| 20260507204105 | 83 | 236 | 2.0 | 7.0 | 0.00 | 0.02 | 0.01 | 64 | 1010.9 |
| 20260507203605 | 83 | 160 | 2.0 | 5.0 | 0.00 | 0.02 | 0.01 | 65 | 1011.0 |
| 20260507203106 | 83 | 224 | 2.0 | 5.0 | 0.00 | 0.02 | 0.01 | 66 | 1011.2 |
| 20260507202607 | 83 | 255 | 2.0 | 5.0 | 0.00 | 0.02 | 0.01 | 66 | 1011.5 |
| 20260507202107 | 83 | 321 | 2.0 | 5.0 | 0.00 | 0.02 | 0.01 | 66 | 1011.6 |
| 20260507201607 | 83 | 152 | 2.0 | 5.0 | 0.00 | 0.02 | 0.01 | 65 | 1011.7 |
| 20260507200607 | 82 | 211 | 2.0 | 5.0 | 0.00 | 0.02 | 0.01 | 66 | 1011.9 |
| 20260507200108 | 82 | 220 | 1.0 | 5.0 | 0.00 | 0.02 | 0.01 | 65 | 1011.7 |
| 20260507195604 | 82 | 230 | 2.0 | 6.0 | 0.00 | 0.02 | 0.01 | 65 | 1012.1 |
| 20260507194602 | 83 | 190 | 2.0 | 6.0 | 0.00 | 0.02 | 0.01 | 65 | 1012.3 |
| 20260507194102 | 83 | 239 | 2.0 | 5.0 | 0.00 | 0.02 | 0.01 | 64 | 1012.3 |
| 20260507193601 | 83 | 0 | 2.0 | 6.0 | 0.00 | 0.02 | 0.01 | 64 | 1012.2 |
| 20260507193101 | 83 | 232 | 3.0 | 6.0 | 0.00 | 0.02 | 0.01 | 64 | 1012.1 |
| 20260507192600 | 83 | 243 | 2.0 | 5.0 | 0.00 | 0.02 | 0.01 | 64 | 1011.9 |
| 20260507192101 | 84 | 213 | 2.0 | 5.0 | 0.00 | 0.02 | 0.01 | 64 | 1012.0 |
| 20260507191607 | 83 | 232 | 2.0 | 6.0 | 0.00 | 0.02 | 0.01 | 65 | 1012.2 |
| 20260507191102 | 83 | 219 | 3.0 | 10.0 | 0.00 | 0.02 | 0.01 | 65 | 1012.3 |
| 20260507190601 | 83 | 198 | 5.0 | 12.0 | 0.00 | 0.02 | 0.01 | 66 | 1012.5 |
| 20260507185602 | 83 | 295 | 4.0 | 11.0 | 0.00 | 0.02 | 0.01 | 66 | 1013.1 |
| 20260507185101 | 83 | 217 | 5.0 | 11.0 | 0.00 | 0.02 | 0.01 | 67 | 1013.2 |
| 20260507184601 | 82 | 247 | 5.0 | 10.0 | 0.00 | 0.02 | 0.01 | 68 | 1013.1 |
| 20260507183601 | 82 | 215 | 6.0 | 16.0 | 0.00 | 0.02 | 0.01 | 69 | 1013.4 |
| 20260507183102 | 81 | 314 | 8.0 | 18.0 | 0.00 | 0.02 | 0.01 | 69 | 1013.5 |
| 20260507182602 | 81 | 273 | 8.0 | 18.0 | 0.00 | 0.02 | 0.01 | 70 | 1013.5 |
| 20260507182104 | 82 | 285 | 6.0 | 17.0 | 0.00 | 0.02 | 0.01 | 69 | 1013.5 |
| 20260507181602 | 82 | 320 | 7.0 | 13.0 | 0.00 | 0.02 | 0.01 | 70 | 1013.7 |
| 20260507181102 | 82 | 300 | 8.0 | 16.0 | 0.00 | 0.02 | 0.01 | 69 | 1013.7 |
| 20260507175602 | 82 | 319 | 6.0 | 12.0 | 0.00 | 0.02 | 0.01 | 67 | 1013.8 |
| 20260507174100 | 82 | 282 | 5.0 | 13.0 | 0.00 | 0.02 | 0.01 | 65 | 1013.9 |
| 20260507173602 | 82 | 278 | 6.0 | 13.0 | 0.00 | 0.02 | 0.01 | 65 | 1013.9 |
| 20260507173101 | 82 | 328 | 5.0 | 10.0 | 0.00 | 0.02 | 0.01 | 64 | 1014.1 |
| 20260507172601 | 82 | 298 | 5.0 | 10.0 | 0.00 | 0.02 | 0.01 | 65 | 1014.1 |
| 20260507172101 | 82 | 326 | 5.0 | 12.0 | 0.00 | 0.02 | 0.01 | 65 | 1014.0 |
| 20260507171600 | 82 | 303 | 6.0 | 12.0 | 0.00 | 0.02 | 0.01 | 65 | 1014.1 |
| 20260507171101 | 83 | 302 | 7.0 | 13.0 | 0.00 | 0.02 | 0.01 | 65 | 1014.0 |
| 20260507170601 | 83 | 314 | 7.0 | 13.0 | 0.00 | 0.02 | 0.01 | 65 | 1013.9 |
| 20260507165601 | 85 | 287 | 3.0 | 11.0 | 0.00 | 0.02 | 0.01 | 58 | 1013.8 |
| 20260507165101 | 85 | 190 | 4.0 | 11.0 | 0.00 | 0.02 | 0.01 | 54 | 1013.8 |
| 20260507164600 | 86 | 293 | 4.0 | 11.0 | 0.00 | 0.02 | 0.01 | 52 | 1013.8 |
| 20260507164101 | 85 | 268 | 5.0 | 13.0 | 0.00 | 0.02 | 0.01 | 54 | 1013.9 |
| 20260507163600 | 85 | 277 | 5.0 | 13.0 | 0.00 | 0.02 | 0.01 | 53 | 1013.9 |
| 20260507163101 | 85 | 280 | 6.0 | 13.0 | 0.00 | 0.02 | 0.01 | 54 | 1013.9 |
| 20260507162600 | 84 | 288 | 7.0 | 13.0 | 0.00 | 0.02 | 0.01 | 56 | 1014.0 |
| 20260507162101 | 84 | 304 | 7.0 | 14.0 | 0.00 | 0.02 | 0.01 | 54 | 1014.0 |
| 20260507161600 | 84 | 287 | 6.0 | 14.0 | 0.00 | 0.02 | 0.01 | 54 | 1014.0 |
| 20260507161100 | 84 | 289 | 6.0 | 14.0 | 0.00 | 0.02 | 0.01 | 54 | 1014.0 |
| 20260507160601 | 83 | 344 | 7.0 | 14.0 | 0.00 | 0.02 | 0.01 | 55 | 1014.0 |
| 20260507155105 | 83 | 239 | 8.0 | 13.0 | 0.00 | 0.02 | 0.01 | 53 | 1014.2 |
| 20260507154601 | 83 | 299 | 7.0 | 13.0 | 0.00 | 0.02 | 0.01 | 54 | 1014.2 |
| 20260507154100 | 84 | 285 | 7.0 | 13.0 | 0.00 | 0.02 | 0.01 | 54 | 1014.4 |
| 20260507152601 | 83 | 311 | 5.0 | 11.0 | 0.00 | 0.02 | 0.01 | 58 | 1014.6 |
| 20260507152101 | 82 | 287 | 4.0 | 11.0 | 0.00 | 0.02 | 0.01 | 63 | 1014.5 |
| 20260507151101 | 82 | 318 | 3.0 | 9.0 | 0.00 | 0.02 | 0.01 | 65 | 1014.3 |
| 20260507150601 | 82 | 288 | 3.0 | 9.0 | 0.00 | 0.02 | 0.01 | 67 | 1014.2 |
| 20260507145606 | 81 | 294 | 3.0 | 9.0 | 0.00 | 0.02 | 0.01 | 70 | 1014.0 |
| 20260507145102 | 81 | 289 | 3.0 | 9.0 | 0.00 | 0.02 | 0.01 | 68 | 1014.1 |
| 20260507144601 | 81 | 321 | 3.0 | 9.0 | 0.00 | 0.02 | 0.01 | 70 | 1013.8 |
| 20260507143601 | 81 | 145 | 1.0 | 3.0 | 0.00 | 0.02 | 0.01 | 70 | 1013.5 |
| 20260507143102 | 80 | 0 | 1.0 | 3.0 | 0.00 | 0.02 | 0.01 | 71 | 1013.4 |
| 20260507142601 | 80 | 0 | 1.0 | 3.0 | 0.00 | 0.02 | 0.01 | 73 | 1013.2 |
| 20260507142101 | 80 | 18 | 1.0 | 4.0 | 0.00 | 0.02 | 0.01 | 73 | 1013.3 |
| 20260507141602 | 79 | 320 | 2.0 | 4.0 | 0.00 | 0.02 | 0.01 | 74 | 1013.3 |
| 20260507141101 | 79 | 332 | 1.0 | 4.0 | 0.00 | 0.02 | 0.01 | 76 | 1013.4 |
| 20260507140601 | 79 | 245 | 1.0 | 3.0 | 0.00 | 0.02 | 0.01 | 76 | 1013.6 |
| 20260507135601 | 78 | 231 | 1.0 | 4.0 | 0.00 | 0.02 | 0.01 | 78 | 1013.5 |
| 20260507135102 | 78 | 0 | 1.0 | 3.0 | 0.00 | 0.02 | 0.01 | 78 | 1013.5 |
| 20260507134600 | 78 | 0 | 1.0 | 4.0 | 0.00 | 0.02 | 0.01 | 78 | 1013.6 |
| 20260507133601 | 76 | 0 | 1.0 | 5.0 | 0.00 | 0.02 | 0.01 | 80 | 1013.9 |
| 20260507133101 | 76 | 280 | 2.0 | 6.0 | 0.00 | 0.02 | 0.01 | 81 | 1014.0 |
| 20260507132601 | 76 | 157 | 2.0 | 6.0 | 0.00 | 0.02 | 0.01 | 82 | 1014.0 |
| 20260507132101 | 76 | 298 | 1.0 | 4.0 | 0.00 | 0.02 | 0.01 | 82 | 1013.8 |
| 20260507131600 | 76 | 0 | 1.0 | 4.0 | 0.00 | 0.02 | 0.01 | 83 | 1013.8 |
| 20260507131101 | 75 | 0 | 1.0 | 4.0 | 0.00 | 0.02 | 0.01 | 84 | 1013.8 |
| 20260507130602 | 75 | 235 | 1.0 | 4.0 | 0.00 | 0.02 | 0.01 | 85 | 1013.8 |
| 20260507125602 | 73 | 224 | 1.0 | 3.0 | 0.01 | 0.02 | 0.01 | 87 | 1013.7 |
| 20260507125101 | 73 | 0 | 0.0 | 2.0 | 0.01 | 0.02 | 0.01 | 88 | 1013.9 |
| 20260507124102 | 71 | 332 | 1.0 | 3.0 | 0.01 | 0.02 | 0.01 | 91 | 1014.0 |
| 20260507123102 | 70 | 0 | 2.0 | 6.0 | 0.01 | 0.02 | 0.01 | 94 | 1014.0 |
| 20260507122601 | 69 | 0 | 4.0 | 7.0 | 0.01 | 0.02 | 0.01 | 94 | 1014.0 |
| 20260507122100 | 69 | 12 | 5.0 | 9.0 | 0.01 | 0.02 | 0.01 | 95 | 1013.9 |
| 20260507121601 | 68 | 326 | 4.0 | 9.0 | 0.01 | 0.02 | 0.01 | 96 | 1014.0 |
| 20260507121100 | 68 | 322 | 1.0 | 6.0 | 0.01 | 0.02 | 0.01 | 97 | 1013.8 |
| 20260507120602 | 68 | 320 | 0.0 | 3.0 | 0.01 | 0.02 | 0.01 | 97 | 1013.5 |
| 20260507115602 | 0 | 0 | 2.0 | 0.0 | 0.00 | 0.01 | 0.00 | ||
| 20260507115102 | 0 | 0 | 2.0 | 0.0 | 0.00 | 0.01 | 0.00 | ||
| 20260507114043 | 65 | 296 | 1.0 | 2.0 | 0.00 | 0.01 | 0.00 | 97 | 1013.4 |
| 20260507113530 | 65 | 296 | 1.0 | 2.0 | 0.00 | 0.01 | 0.00 | 97 | 1013.4 |
| 20260507112528 | 65 | 0 | 0.0 | 1.0 | 0.00 | 0.01 | 0.00 | 96 | 1013.2 |
| 20260507111528 | 65 | 0 | 0.0 | 0.0 | 0.00 | 0.01 | 0.00 | 96 | 1013.2 |
| 20260507111028 | 65 | 0 | 0.0 | 1.0 | 0.00 | 0.01 | 0.00 | 96 | 1013.3 |
| 20260507110527 | 65 | 0 | 0.0 | 1.0 | 0.00 | 0.01 | 0.00 | 96 | 1013.3 |
| 20260507105528 | 65 | 0 | 0.0 | 1.0 | 0.00 | 0.01 | 0.00 | 96 | 1013.1 |
| 20260507105028 | 65 | 0 | 0.0 | 2.0 | 0.00 | 0.01 | 0.00 | 96 | 1013.2 |
| 20260507104527 | 65 | 0 | 0.0 | 2.0 | 0.00 | 0.01 | 0.00 | 95 | 1013.1 |
| 20260507104028 | 65 | 0 | 0.0 | 2.0 | 0.00 | 0.01 | 0.00 | 95 | 1013.0 |
| 20260507103012 | 66 | 226 | 0.0 | 1.0 | 0.00 | 0.01 | 0.00 | 95 | 1013.0 |
| 20260507101513 | 66 | 0 | 0.0 | 1.0 | 0.00 | 0.01 | 0.00 | 94 | 1013.3 |
| 20260507101009 | 67 | 0 | 0.0 | 1.0 | 0.00 | 0.01 | 0.00 | 94 | 1013.3 |
| 20260507100501 | 67 | 0 | 0.0 | 2.0 | 0.00 | 0.01 | 0.00 | 94 | 1013.2 |
| 20260507100003 | 67 | 0 | 0.0 | 4.0 | 0.00 | 0.01 | 0.00 | 94 | 1013.3 |
| 20260507095501 | 67 | 9 | 1.0 | 4.0 | 0.00 | 0.01 | 0.00 | 94 | 1013.2 |
| 20260507095001 | 67 | 265 | 0.0 | 2.0 | 0.00 | 0.01 | 0.00 | 93 | 1013.1 |
| 20260507093502 | 67 | 0 | 0.0 | 3.0 | 0.00 | 0.01 | 0.00 | 93 | 1012.9 |
| 20260507093001 | 68 | 0 | 1.0 | 4.0 | 0.00 | 0.01 | 0.00 | 93 | 1012.8 |
| 20260507092502 | 68 | 289 | 1.0 | 4.0 | 0.00 | 0.01 | 0.00 | 92 | 1012.9 |
| 20260507092000 | 68 | 0 | 0.0 | 1.0 | 0.00 | 0.01 | 0.00 | 92 | 1012.7 |
| 20260507091501 | 68 | 0 | 0.0 | 1.0 | 0.00 | 0.01 | 0.00 | 92 | 1012.7 |
| 20260507090501 | 68 | 0 | 0.0 | 2.0 | 0.00 | 0.01 | 0.00 | 92 | 1012.7 |
| 20260507090001 | 68 | 215 | 1.0 | 2.0 | 0.00 | 0.01 | 0.00 | 92 | 1012.6 |
| 20260507085502 | 68 | 223 | 1.0 | 3.0 | 0.00 | 0.01 | 0.00 | 92 | 1012.5 |
| 20260507085000 | 68 | 237 | 1.0 | 3.0 | 0.00 | 0.01 | 0.00 | 92 | 1012.4 |
| 20260507084000 | 68 | 0 | 1.0 | 3.0 | 0.00 | 0.01 | 0.00 | 92 | 1012.0 |
| 20260507083501 | 68 | 0 | 0.0 | 2.0 | 0.00 | 0.01 | 0.00 | 92 | 1012.0 |
| 20260507083001 | 68 | 221 | 0.0 | 2.0 | 0.00 | 0.01 | 0.00 | 91 | 1012.0 |
| 20260507082502 | 68 | 0 | 0.0 | 1.0 | 0.00 | 0.01 | 0.00 | 91 | 1012.0 |
| 20260507082001 | 68 | 0 | 0.0 | 2.0 | 0.00 | 0.01 | 0.00 | 91 | 1011.9 |
| 20260507081501 | 69 | 0 | 0.0 | 2.0 | 0.00 | 0.01 | 0.00 | 91 | 1011.9 |
| 20260507080501 | 69 | 0 | 0.0 | 2.0 | 0.00 | 0.01 | 0.00 | 91 | 1011.9 |
| 20260507080002 | 69 | 0 | 0.0 | 0.0 | 0.00 | 0.01 | 0.00 | 90 | 1012.0 |
| 20260507075001 | 70 | 0 | 2.0 | 3.0 | 0.00 | 0.01 | 0.00 | 90 | 1012.2 |
| 20260507074500 | 70 | 286 | 1.0 | 3.0 | 0.00 | 0.01 | 0.00 | 89 | 1012.1 |
| 20260507074000 | 71 | 319 | 0.0 | 2.0 | 0.00 | 0.01 | 0.00 | 89 | 1012.2 |
| 20260507073502 | 71 | 0 | 0.0 | 2.0 | 0.00 | 0.01 | 0.00 | 88 | 1012.1 |
| 20260507073001 | 71 | 0 | 1.0 | 2.0 | 0.00 | 0.01 | 0.00 | 88 | 1012.1 |
| 20260507072502 | 71 | 178 | 0.0 | 2.0 | 0.00 | 0.01 | 0.00 | 88 | 1012.3 |
| 20260507072001 | 71 | 167 | 0.0 | 2.0 | 0.00 | 0.01 | 0.00 | 88 | 1012.3 |
| 20260507071001 | 71 | 0 | 1.0 | 2.0 | 0.00 | 0.01 | 0.00 | 88 | 1012.6 |
| 20260507070501 | 71 | 0 | 1.0 | 2.0 | 0.00 | 0.01 | 0.00 | 88 | 1012.6 |
| 20260507070002 | 71 | 169 | 1.0 | 2.0 | 0.00 | 0.01 | 0.00 | 89 | 1012.5 |
| 20260507065503 | 71 | 230 | 1.0 | 2.0 | 0.00 | 0.01 | 0.00 | 88 | 1012.6 |
| 20260507064502 | 70 | 0 | 0.0 | 1.0 | 0.00 | 0.01 | 0.00 | 89 | 1012.7 |
| 20260507062947 | 69 | 0 | 0.0 | 1.0 | 0.00 | 0.01 | 0.00 | 91 | 1012.9 |
| 20260507062446 | 69 | 0 | 0.0 | 1.0 | 0.00 | 0.01 | 0.00 | 90 | 1012.9 |
| 20260507061947 | 69 | 0 | 0.0 | 2.0 | 0.00 | 0.01 | 0.00 | 91 | 1013.0 |
| 20260507060450 | 69 | 0 | 0.0 | 2.0 | 0.00 | 0.01 | 0.00 | 90 | 1013.3 |
| 20260507055947 | 69 | 0 | 0.0 | 2.0 | 0.00 | 0.01 | 0.00 | 90 | 1013.4 |
| 20260507055446 | 70 | 0 | 0.0 | 0.0 | 0.00 | 0.01 | 0.00 | 90 | 1013.5 |
| 20260507054947 | 70 | 0 | 0.0 | 0.0 | 0.00 | 0.01 | 0.00 | 90 | 1013.6 |
| 20260507054445 | 70 | 0 | 0.0 | 2.0 | 0.00 | 0.01 | 0.00 | 90 | 1013.6 |
| 20260507053934 | 70 | 0 | 0.0 | 2.0 | 0.00 | 0.01 | 0.00 | 90 | 1013.6 |
| 20260507052934 | 71 | 0 | 0.0 | 0.0 | 0.00 | 0.01 | 0.00 | 90 | 1013.8 |
| 20260507052433 | 71 | 0 | 0.0 | 2.0 | 0.00 | 0.01 | 0.00 | 89 | 1013.9 |
| 20260507051434 | 71 | 0 | 0.0 | 0.0 | 0.00 | 0.01 | 0.00 | 89 | 1014.0 |
| 20260507050933 | 71 | 0 | 0.0 | 0.0 | 0.00 | 0.01 | 0.00 | 89 | 1014.1 |
| 20260507050434 | 71 | 0 | 0.0 | 0.0 | 0.00 | 0.01 | 0.00 | 89 | 1014.0 |
| 20260507045931 | 71 | 0 | 0.0 | 1.0 | 0.00 | 0.01 | 0.00 | 89 | 1014.0 |
| 20260507045430 | 71 | 0 | 0.0 | 1.0 | 0.00 | 0.01 | 0.00 | 89 | 1014.1 |
| 20260507044429 | 71 | 0 | 0.0 | 0.0 | 0.00 | 0.01 | 0.00 | 88 | 1013.7 |
| 20260507043430 | 71 | 0 | 0.0 | 1.0 | 0.00 | 0.01 | 0.00 | 88 | 1013.7 |
| 20260507042929 | 71 | 0 | 0.0 | 0.0 | 0.00 | 0.01 | 0.00 | 88 | 1013.9 |
| 20260507042425 | 71 | 135 | 0.0 | 1.0 | 0.00 | 0.01 | 0.00 | 88 | 1013.9 |
| 20260507041919 | 71 | 135 | 0.0 | 1.0 | 0.00 | 0.01 | 0.00 | 88 | 1013.9 |
| 20260507041419 | 72 | 0 | 0.0 | 0.0 | 0.00 | 0.01 | 0.00 | 87 | 1014.0 |
| 20260507040413 | 72 | 0 | 0.0 | 0.0 | 0.00 | 0.01 | 0.00 | 86 | 1014.3 |
| 20260507035902 | 72 | 0 | 0.0 | 0.0 | 0.00 | 0.01 | 0.01 | 86 | 1014.2 |
| 20260507035400 | 72 | 0 | 0.0 | 0.0 | 0.00 | 0.01 | 0.01 | 85 | 1014.3 |
| 20260507034851 | 73 | 0 | 0.0 | 0.0 | 0.00 | 0.01 | 0.01 | 85 | 1014.4 |
| 20260507034350 | 73 | 0 | 0.0 | 1.0 | 0.00 | 0.01 | 0.01 | 85 | 1014.3 |
| 20260507033351 | 73 | 0 | 0.0 | 0.0 | 0.00 | 0.01 | 0.01 | 86 | 1014.3 |
| 20260507032852 | 73 | 0 | 0.0 | 0.0 | 0.00 | 0.01 | 0.01 | 86 | 1014.2 |
| 20260507032349 | 73 | 0 | 0.0 | 0.0 | 0.00 | 0.01 | 0.01 | 84 | 1014.1 |
| 20260507031850 | 73 | 0 | 0.0 | 0.0 | 0.00 | 0.01 | 0.01 | 83 | 1014.0 |
| 20260507031350 | 74 | 0 | 0.0 | 0.0 | 0.00 | 0.01 | 0.01 | 84 | 1014.0 |
| 20260507030848 | 74 | 0 | 0.0 | 0.0 | 0.00 | 0.01 | 0.01 | 83 | 1014.2 |
| 20260507030352 | 74 | 0 | 0.0 | 0.0 | 0.00 | 0.01 | 0.01 | 83 | 1014.2 |
| 20260507025849 | 75 | 0 | 0.0 | 0.0 | 0.00 | 0.01 | 0.01 | 82 | 1014.2 |
| 20260507025349 | 75 | 0 | 0.0 | 0.0 | 0.00 | 0.01 | 0.01 | 81 | 1014.0 |
| 20260507024850 | 75 | 0 | 0.0 | 0.0 | 0.00 | 0.01 | 0.01 | 81 | 1014.0 |
| 20260507024350 | 75 | 0 | 0.0 | 0.0 | 0.00 | 0.01 | 0.01 | 81 | 1014.0 |
| 20260507023846 | 76 | 0 | 0.0 | 1.0 | 0.00 | 0.01 | 0.01 | 80 | 1014.0 |
| 20260507022846 | 76 | 0 | 0.0 | 2.0 | 0.00 | 0.01 | 0.01 | 79 | 1014.1 |
| 20260507022346 | 77 | 0 | 1.0 | 2.0 | 0.00 | 0.01 | 0.01 | 78 | 1014.0 |
| 20260507021846 | 78 | 173 | 1.0 | 2.0 | 0.00 | 0.01 | 0.01 | 76 | 1014.0 |
| 20260507021346 | 78 | 0 | 0.0 | 2.0 | 0.00 | 0.01 | 0.01 | 76 | 1014.1 |
| 20260507020845 | 78 | 126 | 0.0 | 2.0 | 0.00 | 0.01 | 0.01 | 75 | 1014.1 |
| 20260507020343 | 78 | 0 | 0.0 | 2.0 | 0.00 | 0.01 | 0.01 | 73 | 1014.1 |
| 20260507015844 | 79 | 0 | 0.0 | 2.0 | 0.00 | 0.01 | 0.01 | 74 | 1014.1 |
| 20260507015338 | 79 | 69 | 1.0 | 2.0 | 0.00 | 0.01 | 0.01 | 73 | 1014.0 |
| 20260507014838 | 79 | 139 | 1.0 | 2.0 | 0.00 | 0.01 | 0.01 | 72 | 1013.9 |
| 20260507014338 | 80 | 100 | 1.0 | 2.0 | 0.00 | 0.01 | 0.01 | 70 | 1013.8 |
| 20260507013837 | 80 | 143 | 0.0 | 2.0 | 0.00 | 0.01 | 0.01 | 68 | 1013.8 |
| 20260507013338 | 81 | 0 | 2.0 | 5.0 | 0.00 | 0.01 | 0.01 | 67 | 1013.9 |
| 20260507012834 | 80 | 247 | 2.0 | 5.0 | 0.00 | 0.01 | 0.01 | 67 | 1013.8 |
| 20260507012330 | 80 | 293 | 0.0 | 2.0 | 0.00 | 0.01 | 0.01 | 72 | 1013.9 |
| 20260507011830 | 80 | 0 | 1.0 | 3.0 | 0.00 | 0.01 | 0.01 | 73 | 1013.8 |
| 20260507011326 | 81 | 226 | 1.0 | 3.0 | 0.00 | 0.01 | 0.01 | 73 | 1013.9 |
| 20260507010823 | 81 | 57 | 1.0 | 3.0 | 0.00 | 0.01 | 0.01 | 73 | 1013.9 |
| 20260507010323 | 82 | 103 | 2.0 | 4.0 | 0.00 | 0.01 | 0.01 | 71 | 1014.0 |
| 20260507005819 | 82 | 353 | 2.0 | 4.0 | 0.00 | 0.01 | 0.01 | 72 | 1013.9 |
| 20260507005323 | 82 | 265 | 1.0 | 4.0 | 0.00 | 0.01 | 0.01 | 68 | 1013.8 |
| 20260507004815 | 82 | 314 | 3.0 | 7.0 | 0.00 | 0.01 | 0.01 | 70 | 1013.7 |
| 20260507004311 | 83 | 88 | 2.0 | 7.0 | 0.00 | 0.01 | 0.01 | 69 | 1013.6 |
| 20260507003810 | 83 | 123 | 2.0 | 6.0 | 0.00 | 0.01 | 0.01 | 69 | 1013.7 |
| 20260507003310 | 83 | 166 | 1.0 | 6.0 | 0.00 | 0.01 | 0.01 | 69 | 1013.6 |
| 20260507002810 | 84 | 304 | 2.0 | 6.0 | 0.00 | 0.01 | 0.01 | 68 | 1013.6 |
| 20260507001806 | 85 | 256 | 2.0 | 6.0 | 0.00 | 0.01 | 0.01 | 62 | 1013.2 |
| 20260507001306 | 85 | 0 | 2.0 | 6.0 | 0.00 | 0.01 | 0.01 | 54 | 1013.1 |
| 20260507000806 | 86 | 92 | 0.0 | 3.0 | 0.00 | 0.01 | 0.01 | 53 | 1012.7 |
| 20260507000307 | 86 | 0 | 0.0 | 0.0 | 0.00 | 0.01 | 0.01 | 52 | 1012.5 |
| 20260506235807 | 87 | 0 | 0.0 | 0.0 | 0.00 | 0.01 | 0.01 | 51 | 1012.3 |
| 20260506235307 | 87 | 0 | 0.0 | 2.0 | 0.00 | 0.01 | 0.01 | 51 | 1012.3 |
| 20260506234807 | 88 | 0 | 0.0 | 4.0 | 0.00 | 0.01 | 0.01 | 50 | 1012.4 |
| 20260506233806 | 89 | 0 | 1.0 | 4.0 | 0.00 | 0.00 | 0.00 | 48 | 1012.4 |
| 20260506233308 | 89 | 333 | 1.0 | 4.0 | 0.00 | 0.00 | 0.00 | 48 | 1012.4 |
| 20260506232806 | 90 | 0 | 1.0 | 4.0 | 0.00 | 0.00 | 0.00 | 47 | 1012.4 |